Theta_e
309 309 309 310 310 310 309 309 307 305 304 304 304 306 306 305 303 301 299 301 298 294 295 296 297 295 295 296 292 297 296 297 295 291 292 292 289 291 291 293 292 290 289 288 289 285 282 300 298 291 296 301 301 300
309 308 308 308 309 309 309 308 307 305 304 304 304 305 305 306 303 302 296 303 304 295 294 299 298 299 300 300 297 298 296 297 296 293 295 294 290 292 291 286 296 290 293 288 292 292 301 301 299 302 302 299 299 299
309 309 308 308 308 308 308 308 307 305 304 304 304 305 305 306 303 302 299 301 300 294 295 297 296 303 306 304 306 295 299 301 300 303 297 295 290 294 289 290 293 296 299 294 293 296 297 297 300 300 300 298 300 300
308 308 308 308 308 308 308 308 307 305 304 304 304 304 305 306 303 302 298 301 299 294 288 295 306 302 307 307 305 305 302 305 303 300 296 294 292 298 293 294 292 293 296 290 291 295 294 296 296 298 298 298 298 298
307 308 308 308 308 308 308 308 307 305 304 304 304 304 305 305 302 301 301 301 301 294 289 290 298 303 305 306 304 304 304 300 297 294 294 293 297 297 297 297 290 294 291 287 286 292 291 292 297 299 297 298 298 296
307 307 307 308 308 308 308 308 307 305 305 305 304 304 305 304 302 297 293 300 301 301 291 287 299 302 303 305 303 301 301 300 299 295 293 297 301 297 290 290 294 296 296 296 290 293 293 296 299 299 298 298 297 295
306 307 307 307 308 308 308 308 307 306 305 304 303 304 304 302 300 294 294 297 301 302 292 288 292 301 304 303 302 301 303 298 298 294 293 295 297 296 291 288 295 296 294 293 296 295 292 295 294 299 299 298 297 295
306 307 307 307 307 307 307 308 307 306 304 303 303 304 302 301 297 294 300 301 301 296 295 287 289 296 304 297 297 304 297 297 295 295 297 296 297 293 289 293 295 294 292 293 294 294 294 297 300 298 299 296 293 292
306 306 307 307 307 307 307 307 306 305 303 303 303 301 298 295 292 297 302 302 303 296 288 289 288 291 303 299 300 303 301 292 297 292 295 295 293 289 292 293 292 291 290 290 293 296 298 298 297 297 295 293 290 290
305 306 306 306 306 307 307 306 305 304 303 302 299 294 291 296 303 302 296 292 292 292 292 288 295 291 298 296 295 296 300 296 288 292 295 290 292 296 295 294 293 292 293 294 293 293 296 296 296 295 293 293 292 290
305 305 306 306 307 307 307 306 304 303 302 297 293 293 298 301 298 295 289 288 288 287 291 293 293 292 300 292 293 298 295 297 290 290 290 290 288 292 295 294 293 294 295 296 296 298 300 299 296 295 293 293 292 290
305 305 306 306 306 307 306 304 304 300 297 298 297 299 298 294 292 289 288 291 289 288 294 293 295 297 298 300 295 297 293 295 287 295 290 288 291 294 295 294 293 294 294 294 297 298 300 300 298 296 294 294 293 292
305 305 305 305 306 306 305 304 302 301 300 299 295 291 291 291 285 283 283 288 290 294 297 296 293 297 298 298 296 294 289 291 299 292 288 290 294 295 294 294 293 294 293 294 296 298 299 300 300 298 295 295 294 293
304 305 305 305 306 305 304 302 301 301 298 292 290 284 287 285 287 288 290 292 296 296 296 296 295 295 297 295 296 290 295 295 289 288 286 291 293 294 294 294 293 292 293 293 294 297 298 299 299 299 298 296 294 292
304 304 305 305 306 304 302 302 301 300 296 291 290 285 286 292 295 296 297 296 296 298 297 295 297 297 295 292 293 291 289 285 286 285 289 294 294 293 294 292 294 292 292 292 294 296 297 298 299 298 299 297 295 293
304 304 304 305 304 302 302 300 297 297 293 291 291 289 293 291 293 295 295 294 297 297 297 297 294 292 289 290 288 286 286 284 286 291 293 294 293 292 292 293 294 294 294 292 293 295 297 297 298 299 299 297 295 294
304 300 304 303 301 301 299 295 294 291 291 290 290 294 294 295 294 294 295 296 299 296 292 294 289 289 293 288 285 289 286 289 293 293 294 293 292 292 292 293 293 294 294 292 291 292 294 297 299 298 296 298 296 295
301 303 302 301 298 297 295 295 293 291 288 291 289 293 295 296 295 295 297 299 297 295 296 292 297 290 288 286 288 292 293 295 295 293 292 293 293 293 293 293 294 295 295 294 294 293 292 292 295 295 297 297 296 295
301 300 300 299 298 296 292 292 294 288 290 293 294 296 296 296 299 299 298 299 300 300 297 295 291 291 292 294 293 294 294 295 293 293 293 294 295 294 294 294 295 295 294 293 294 293 292 293 294 295 297 298 295 294
300 299 299 300 301 295 291 292 297 293 290 293 295 294 294 296 297 297 297 298 297 296 292 291 292 294 294 295 296 296 295 295 293 290 292 295 297 297 296 296 295 295 294 292 293 291 293 293 294 294 296 297 296 293
298 298 299 299 297 296 295 292 292 295 295 293 295 294 294 296 295 295 296 299 295 295 292 296 295 296 298 298 298 298 296 295 294 294 294 294 297 297 297 297 296 296 294 292 291 291 291 292 292 293 295 297 299 295
295 297 295 296 294 294 294 297 295 297 295 294 294 295 293 292 293 295 298 294 294 295 297 296 296 296 295 295 297 297 297 297 297 295 290 294 293 294 295 295 294 293 293 293 294 293 293 294 294 292 292 295 297 298
298 298 295 295 290 291 290 298 292 294 291 293 294 292 292 293 295 298 293 295 296 299 298 298 297 298 296 297 297 297 297 296 294 294 295 295 295 295 295 295 294 293 292 293 294 294 295 292 294 294 292 293 295 297
298 294 291 290 291 288 294 291 295 294 294 292 291 290 292 294 297 293 290 292 295 297 297 297 297 294 294 295 295 295 296 298 295 294 295 294 293 294 295 294 293 293 294 294 293 294 293 294 293 294 293 291 291 293
289 288 289 286 293 290 289 289 290 291 289 292 290 290 292 296 290 289 289 294 295 296 297 297 297 295 293 293 294 294 297 297 295 292 293 294 294 294 294 294 293 293 294 292 291 291 291 293 293 294 294 291 289 290
285 289 287 289 290 289 290 287 289 290 291 290 291 294 294 291 288 287 292 296 296 297 297 297 296 296 295 295 293 293 294 297 297 292 292 293 292 292 291 290 289 289 293 293 292 291 290 292 291 292 292 293 289 289
284 286 292 296 294 294 292 294 294 292 289 289 292 291 290 286 286 292 297 299 299 300 300 300 299 297 296 295 296 295 296 297 295 293 294 293 293 293 292 289 288 289 293 292 292 291 290 291 291 291 292 293 293 292
290 291 288 291 292 295 289 290 290 290 290 294 293 289 287 287 288 295 296 299 301 301 299 300 300 299 297 295 295 295 294 294 294 294 294 293 293 293 292 292 292 287 292 292 292 291 290 290 290 291 291 291 291 292
290 293 293 289 290 291 291 291 291 294 297 295 291 290 289 291 295 295 297 298 300 298 296 295 295 296 295 296 296 296 296 295 293 290 290 290 290 290 291 291 291 292 292 292 283 287 288 289 290 290 290 290 290 290
290 294 291 289 288 289 293 296 294 297 297 295 293 292 292 294 296 299 298 297 295 294 295 295 295 294 293 292 292 292 293 294 294 293 291 289 289 290 290 290 290 290 291 291 291 291 286 288 287 289 288 288 287 286
294 293 291 290 290 292 294 296 296 296 295 294 294 291 290 292 294 297 297 297 297 296 295 293 293 294 293 293 292 290 289 291 290 289 290 291 290 289 289 289 289 290 290 290 289 289 287 285 285 284 284 284 283 283
292 290 289 287 288 292 295 292 292 292 291 290 289 290 290 289 287 291 294 296 295 294 289 293 293 293 294 294 294 292 288 290 288 287 286 287 287 286 288 287 287 288 288 288 288 288 285 283 282 281 280 280 280 280
290 291 291 289 288 288 290 290 289 288 289 289 288 289 289 287 283 289 294 296 295 295 294 295 294 294 293 292 291 289 286 285 282 281 281 280 280 281 284 284 284 286 286 286 286 285 285 282 281 280 279 278 278 278
Wind_Speed
14 15 15 16 17 17 18 19 19 18 14 13 14 14 16 8 5 2 5 6 2 5 14 13 11 13 9 8 9 12 7 3 3 4 3 2 4 6 8 9 8 6 4 4 6 6 7 15 8 12 13 17 19 19
13 13 14 15 16 16 16 19 19 19 16 14 13 14 15 10 8 4 3 4 3 5 9 15 18 20 18 13 8 6 8 6 4 4 4 5 4 5 8 6 11 4 2 4 4 6 16 16 16 16 16 18 18 20
13 12 13 13 14 15 15 17 20 20 16 14 13 13 13 9 12 8 2 2 3 6 10 9 11 16 11 10 7 5 1 5 4 5 3 3 5 3 4 6 9 9 11 7 10 5 17 22 17 20 20 22 25 26
12 12 12 13 13 13 14 15 19 20 18 15 13 13 12 9 13 9 2 1 4 3 5 2 4 1 10 7 8 8 8 6 6 6 3 3 4 5 6 9 10 5 10 8 14 14 24 11 18 19 21 23 23 23
13 12 12 12 13 13 13 14 18 20 18 15 14 14 10 6 10 5 3 4 5 3 4 9 17 17 10 9 8 7 5 2 4 3 3 3 4 5 6 8 4 3 4 3 5 17 14 18 21 27 24 21 19 24
13 13 13 13 13 13 12 13 17 20 18 15 14 13 11 8 10 2 3 5 8 3 3 5 7 7 14 10 9 8 5 3 3 2 3 4 2 2 3 4 3 8 9 8 6 11 17 21 21 21 24 21 23 24
13 13 12 12 13 12 12 12 17 20 17 14 12 10 8 17 4 2 2 2 9 3 3 5 5 4 12 12 9 6 6 2 1 1 4 6 3 1 2 3 12 14 15 16 14 12 13 17 18 26 14 19 23 22
14 12 12 12 12 12 11 11 18 19 16 12 9 5 13 10 2 3 4 7 3 2 4 4 6 5 10 7 5 4 5 3 4 2 4 4 1 2 3 4 12 14 13 12 13 17 19 21 22 20 18 20 22 19
14 12 12 13 11 10 10 11 18 18 15 10 13 16 4 2 3 2 8 13 3 2 3 3 5 1 7 9 6 7 6 5 4 4 2 3 3 1 7 11 10 10 9 14 18 19 19 21 20 20 21 22 22 20
14 13 13 12 11 9 9 16 21 18 12 21 5 3 3 3 6 11 2 3 4 3 4 5 8 9 8 6 5 3 6 4 4 3 3 2 1 5 10 8 9 11 14 15 17 18 19 21 20 20 20 21 18 19
14 14 13 12 11 10 11 21 22 17 19 2 4 2 3 1 4 3 3 4 4 4 5 6 11 8 5 4 3 3 3 1 2 3 2 3 2 6 9 10 10 10 13 15 16 18 18 20 16 19 21 20 20 18
15 15 14 13 12 10 20 25 23 9 4 5 4 3 1 2 4 3 4 5 6 5 7 7 6 8 2 2 2 3 3 2 3 6 3 2 2 8 8 10 11 13 16 17 17 19 19 19 15 17 20 20 20 16
16 15 14 13 12 14 26 26 20 21 11 2 2 4 3 4 5 6 5 5 6 5 5 5 4 1 3 2 3 2 4 3 6 4 3 2 6 7 9 10 13 13 15 17 17 19 19 19 18 15 18 20 20 17
15 14 13 12 12 24 27 26 27 15 3 3 5 5 5 6 6 6 7 5 4 2 5 5 5 4 2 3 2 4 2 3 4 2 4 4 9 9 9 10 11 14 16 18 18 18 21 19 18 16 15 19 19 19
12 12 12 12 17 27 28 27 19 3 2 3 4 5 8 7 5 5 6 9 2 0 1 2 4 3 2 1 2 3 3 1 4 3 3 6 8 9 10 12 11 11 12 14 17 16 17 19 18 17 17 17 19 18
10 8 6 17 27 30 28 17 4 0 1 2 4 4 4 3 7 8 8 4 3 3 2 3 2 4 2 2 2 2 5 3 2 2 3 7 9 10 10 11 11 11 9 13 15 17 17 17 18 16 16 14 18 19
9 1 21 28 33 28 20 5 2 4 4 4 5 7 6 6 5 4 5 3 3 5 5 3 3 3 4 1 1 2 1 0 5 6 5 6 8 10 10 10 10 11 9 10 13 15 17 17 16 16 18 17 17 18
2 16 33 34 21 13 2 1 3 5 6 7 5 5 8 7 5 4 2 3 2 6 3 3 0 3 3 1 3 4 3 1 6 4 3 5 6 7 8 10 10 10 10 10 11 11 14 17 16 13 17 18 13 16
17 21 34 29 12 5 5 4 3 4 7 4 8 6 7 5 2 2 3 1 3 5 2 2 1 2 2 3 5 6 4 4 3 4 2 4 5 6 7 9 9 9 9 12 13 8 9 13 13 12 12 13 10 12
32 31 27 18 4 3 5 4 5 4 3 4 5 6 7 6 5 3 4 4 5 3 2 2 4 3 5 7 3 5 6 7 4 2 2 2 1 3 5 4 6 8 9 11 11 12 11 10 11 13 12 13 10 12
20 15 15 3 1 2 2 4 5 4 3 4 6 8 5 6 6 6 5 3 3 2 3 2 8 6 7 5 6 7 6 6 5 3 3 5 5 4 5 6 8 7 7 8 9 11 12 9 8 11 13 13 11 9
6 10 3 1 1 2 3 4 2 2 3 3 8 8 7 7 7 5 5 4 3 3 2 6 7 6 6 6 6 7 7 6 6 4 5 3 6 6 7 8 9 9 9 9 9 9 9 10 8 8 12 13 14 8
11 3 2 2 2 3 3 5 4 4 5 6 8 6 5 5 4 4 3 2 3 1 2 9 7 5 10 8 8 7 5 2 5 4 4 5 6 6 6 8 9 9 9 10 10 10 10 9 12 10 8 12 12 12
3 4 5 6 5 4 5 5 5 4 4 7 7 4 5 3 4 2 3 5 4 5 7 10 7 7 7 8 6 6 4 2 5 5 5 5 5 6 6 7 8 8 8 8 9 9 10 11 11 11 10 10 13 13
4 4 3 3 6 6 6 6 5 4 5 7 8 4 4 3 3 4 4 6 7 7 8 8 8 8 7 6 6 5 3 2 4 5 5 5 5 5 5 6 8 9 9 9 10 11 11 11 12 13 12 10 12 14
3 5 7 7 5 5 5 6 7 8 5 5 5 4 4 4 4 3 2 6 8 7 8 7 7 6 7 7 6 5 3 2 1 6 5 6 6 6 6 7 7 8 9 9 10 12 13 12 13 16 15 14 10 12
3 4 5 5 4 4 3 2 3 4 6 4 6 5 4 5 4 4 4 3 5 7 6 6 4 5 6 6 7 4 3 2 6 6 5 7 7 6 6 7 9 7 8 10 11 12 13 13 13 14 14 13 14 12
3 2 5 2 3 2 3 3 5 6 4 3 6 6 6 1 3 2 2 4 5 5 3 4 5 6 7 8 6 5 4 5 4 3 6 6 7 6 7 6 6 6 5 7 9 11 12 12 12 13 14 13 13 13
3 3 6 4 4 3 4 4 2 2 1 3 4 4 4 3 2 2 5 4 4 4 6 7 8 8 6 6 5 4 4 2 3 5 6 5 6 6 6 6 7 7 7 7 5 9 14 12 11 12 14 12 12 12
4 5 3 4 4 1 2 2 4 6 8 9 7 10 10 7 5 5 6 5 5 6 6 7 6 7 7 7 7 6 6 6 6 4 5 5 3 5 6 7 7 8 7 8 9 10 11 11 11 11 12 11 11 10
6 3 4 3 3 3 6 6 5 7 9 9 10 10 10 7 8 6 4 2 6 6 6 7 6 5 5 7 7 7 8 7 7 7 5 3 5 6 5 6 6 6 7 8 8 9 11 11 11 13 14 15 16 14
3 4 3 4 3 4 7 5 4 4 4 9 10 9 9 6 5 4 8 10 2 5 3 4 6 6 10 8 8 10 12 11 9 8 11 8 7 7 7 6 7 7 7 7 7 8 10 11 10 12 12 14 15 16
2 4 2 5 3 3 4 3 2 2 3 3 3 3 3 3 4 3 5 8 8 3 6 7 8 10 12 12 10 11 11 10 11 8 7 7 7 8 6 7 7 7 9 7 7 8 9 11 10 11 12 13 13 13
Wind_Direction
270 267 265 263 258 250 237 225 213 208 216 234 257 274 283 193 194 224 282 274 250 279 292 276 299 297 279 257 295 1 286 5 313 290 304 325 314 329 310 315 291 187 240 215 250 244 262 13 357 359 311 311 316 319
272 270 267 264 262 257 244 228 211 206 207 229 251 267 278 209 177 206 257 296 215 261 279 308 287 265 268 281 303 293 311 283 358 329 350 323 343 303 324 305 324 1 23 275 293 300 317 358 335 327 355 335 327 321
272 277 276 270 266 261 254 229 209 204 203 220 243 265 283 261 172 200 250 325 282 269 279 242 252 230 215 227 238 266 342 332 41 332 327 290 278 271 288 302 336 321 19 344 329 310 346 335 339 344 333 317 308 310
273 271 275 273 270 266 255 233 208 204 201 212 235 258 273 255 177 189 204 230 273 286 280 330 128 183 185 202 205 226 267 286 314 305 303 278 271 291 296 308 307 6 341 337 290 303 338 313 318 319 314 307 300 291
267 265 267 272 271 267 259 234 209 203 200 208 230 248 267 267 177 197 241 231 257 258 308 306 308 266 212 182 208 214 232 308 289 302 260 265 283 334 318 280 57 352 338 310 288 310 298 292 305 306 307 306 324 315
262 262 261 265 266 263 259 238 210 198 198 205 227 245 248 183 154 154 281 185 227 171 271 287 344 273 191 179 190 197 191 216 247 302 273 272 7 350 322 315 140 358 352 346 285 290 285 289 299 297 299 324 326 315
260 257 258 263 264 260 255 241 204 192 191 200 230 245 279 158 170 166 275 326 319 123 255 285 278 246 191 201 192 186 180 161 263 217 256 261 300 133 250 264 354 351 344 315 300 314 304 298 303 299 335 325 318 314
257 254 257 259 260 257 253 234 194 184 177 198 222 177 142 146 13 283 233 238 245 208 265 273 271 243 209 215 182 145 168 169 177 239 250 251 92 200 239 317 347 351 326 304 316 308 289 290 301 326 336 330 322 314
254 252 254 256 256 255 249 209 179 166 173 189 137 124 118 213 212 249 193 200 185 293 269 242 265 359 192 237 224 164 179 171 130 223 240 133 233 234 7 358 356 343 316 302 305 304 312 325 325 344 333 332 330 324
251 249 250 252 250 245 235 177 161 159 167 132 134 177 205 189 162 114 112 149 192 214 227 260 268 268 285 304 210 220 165 187 190 201 101 209 152 47 55 44 359 326 314 316 315 318 321 323 339 344 335 334 323 326
252 251 246 248 245 230 197 160 156 153 138 190 171 207 74 125 183 229 192 201 178 222 216 235 238 269 293 286 327 316 322 290 247 126 242 199 111 39 32 19 350 328 328 326 320 312 318 322 343 335 332 331 328 322
249 245 240 241 238 224 170 158 156 137 147 129 110 87 162 209 217 238 222 196 199 243 183 228 203 227 70 307 266 219 236 246 245 162 229 124 65 49 9 9 352 349 341 331 323 319 329 330 348 343 337 333 336 330
248 241 234 231 218 192 161 158 148 122 115 114 171 160 205 170 218 223 210 207 213 201 195 199 178 152 158 163 231 216 238 228 137 210 114 81 37 26 10 358 350 351 341 334 331 330 329 333 341 350 344 341 339 338
238 230 227 224 213 168 157 146 141 132 127 175 164 188 226 185 233 205 235 306 269 244 162 212 153 196 136 203 265 263 312 292 260 193 75 36 29 360 5 353 351 348 343 339 331 333 331 338 338 347 349 351 345 349
228 226 225 213 180 154 144 144 140 79 177 180 198 219 215 246 254 252 259 247 232 118 192 194 141 110 47 320 335 317 257 171 38 37 336 14 12 353 356 347 350 344 338 341 331 336 333 334 340 349 352 356 352 353
214 220 211 162 148 136 137 127 81 42 215 244 228 241 227 233 254 238 213 186 168 228 253 193 185 145 130 281 255 3 330 38 79 208 2 10 358 351 350 342 344 343 348 347 337 338 339 342 341 348 352 358 356 359
184 233 149 137 132 129 112 90 146 199 215 223 230 228 248 249 229 205 219 186 168 247 232 181 203 131 134 135 158 21 11 139 262 64 32 17 342 344 343 343 344 345 355 353 350 347 341 340 338 343 355 351 1 359
156 140 133 129 118 102 57 145 189 190 224 228 245 214 221 254 244 200 176 107 223 253 276 36 182 152 170 212 150 178 153 190 65 51 356 342 342 349 350 342 340 338 351 346 346 353 351 346 345 346 343 343 4 2
146 139 133 130 127 121 139 169 234 225 223 228 220 211 216 231 322 139 102 93 282 316 28 213 60 124 125 61 106 99 104 50 70 56 356 337 332 3 357 349 349 355 6 357 347 7 351 345 349 343 337 340 12 8
134 132 129 126 177 141 137 161 194 250 222 219 215 209 202 216 196 172 183 187 197 195 183 239 72 66 99 78 79 78 82 93 91 90 2 249 294 56 45 8 12 19 19 5 358 7 350 351 355 346 340 340 360 13
115 122 101 74 118 263 220 170 199 217 221 179 194 198 203 187 188 200 171 171 216 257 118 70 85 76 92 90 72 98 93 105 111 139 302 29 16 45 36 40 34 31 38 24 11 3 3 357 357 351 341 345 346 30
99 90 101 275 116 243 230 224 229 219 216 206 190 196 188 196 198 187 116 203 179 117 44 112 113 138 132 117 81 82 114 148 198 132 221 212 26 29 32 38 30 22 26 19 19 9 9 6 13 7 358 342 342 16
106 94 99 155 191 192 256 164 204 228 185 189 185 202 199 179 82 114 177 117 109 157 147 106 144 125 101 112 123 130 132 253 82 54 34 64 68 31 36 49 39 22 13 23 15 6 8 18 13 17 12 4 348 343
138 128 164 181 198 194 187 195 220 216 206 182 185 190 156 108 121 213 201 150 123 185 127 135 152 134 150 164 155 142 143 157 110 77 28 22 49 51 36 53 47 29 15 18 14 9 10 6 19 17 19 15 9 353
135 152 176 195 219 198 186 183 183 217 188 180 177 143 128 120 159 221 220 135 161 165 144 182 162 171 170 138 111 111 273 47 80 88 52 47 17 43 42 46 60 31 11 14 16 14 11 8 14 9 24 34 21 7
142 176 190 208 180 185 175 166 194 199 178 173 161 137 119 151 208 210 97 139 159 164 162 195 185 188 134 135 133 126 117 70 89 92 56 57 40 30 33 35 28 25 2 18 7 14 9 9 15 11 8 23 43 21
159 220 197 221 216 178 152 143 169 203 183 176 145 144 153 167 185 74 58 66 122 137 169 199 176 146 127 107 93 113 101 65 43 74 73 74 65 43 40 40 34 11 344 22 9 19 7 5 13 9 6 12 21 22
251 194 175 132 99 70 107 173 191 193 196 156 149 172 172 131 86 60 83 56 133 155 150 109 88 103 106 108 140 144 101 103 128 165 133 114 88 56 36 36 43 309 344 33 12 22 11 1 10 8 7 12 15 6
200 179 134 130 115 197 216 216 184 129 337 181 145 77 98 78 157 121 111 161 156 141 131 122 98 90 102 99 86 77 59 346 200 181 196 98 48 34 27 17 12 10 11 13 90 48 18 354 23 10 7 17 19 357
149 155 117 132 164 159 57 77 84 71 78 82 93 106 109 110 113 136 127 155 147 140 135 125 134 166 148 134 108 88 68 45 51 64 50 66 36 27 18 7 6 0 5 1 4 18 21 357 18 12 11 12 18 3
135 121 123 126 86 80 89 84 72 70 72 97 111 117 113 110 78 52 62 120 137 150 150 147 178 155 155 150 142 156 118 107 88 56 31 100 61 29 12 358 3 358 352 2 10 19 19 11 13 8 6 8 8 4
138 174 161 120 102 55 58 41 30 73 98 100 105 119 135 117 78 44 18 346 213 142 77 170 141 97 81 84 93 68 60 71 59 44 24 24 28 10 352 14 359 347 348 360 23 28 34 23 15 10 6 4 3 1
121 117 104 107 109 127 118 113 102 72 65 74 69 68 63 59 85 31 29 3 345 8 82 78 81 79 82 88 95 86 82 89 90 84 74 52 31 1 3 16 354 352 351 6 22 7 38 37 20 15 11 7 3 359